Regional Weather Roundup
Issued by NWS

Home | Current Version | Previous Version | Text Only | Print | Product List | Glossary On
Versions: 1 2 3 4 5 6 7 8 9 10 11 12 13 14 15 16 17 18 19 20 21 22 23 24 25 26 27 28 29 30 31 32 33 34 35 36 37 38 39 40 41 42 43 44 45 46 47 48 49 50
000
ASUS44 KJAN 211510
RWRMS

MISSISSIPPI HOURLY WEATHER ROUNDUP
NATIONAL WEATHER SERVICE JACKSON MS
1000 AM CDT TUE APR 21 2015

NOTE: "FAIR: INDICATES FEW OR NO CLOUDS BELOW 12,000 FEET WITH NO
SIGNIFICANT WEATHER AND/OR OBSTRUCTIONS TO VISIBILITY.

MSZ001>002-007>008-010>013-018>021-025>028-034>036-211600-
NORTHWEST MISSISSIPPI

CITY           SKY/WX    TMP DP  RH WIND       PRES   REMARKS
CLARKSDALE     FAIR      63  48  59 S6        30.06S
CLEVELAND      FAIR      63  47  56 S7        30.06S
GREENWOOD      SUNNY     64  40  41 VRB3      30.08S
GREENVILLE     SUNNY     64  43  46 S6        30.06F
OLIVE BRANCH   MOSUNNY   63  39  42 S8        30.03S
OXFORD         FAIR      61  36  39 SW6       30.08R
TUNICA         SUNNY     61  46  59 S8        30.05R
$$

MSZ003>006-009-014>017-022>024-029>033-037>039-211600-
NORTHEAST MISSISSIPPI

CITY           SKY/WX    TMP DP  RH WIND       PRES   REMARKS
COLUMBUS AFB   SUNNY     62  37  38 N6        30.08R
CORINTH        FAIR      63  34  34 VRB7      30.04S
GOLDN TRIANGLE SUNNY     63  41  45 N6        30.09R
STARKVILLE     FAIR      61  34  36 N3        30.09S
TUPELO         SUNNY     64  33  31 NW5       30.07R
$$

MSZ040-058-211600-
CENTRAL MISSISSIPPI

CITY           SKY/WX    TMP DP  RH WIND       PRES   REMARKS
JACKSON INTL   SUNNY     66  36  32 NE8       30.09R
JACKSON HAWKNS SUNNY     65  34  31 NE8       30.09S
MERIDIAN KEY   SUNNY     64  36  35 N12       30.08S
MERIDIAN NAS   SUNNY     64  33  31 N9        30.09S
RAYMOND        FAIR      63  59  88 VRB5      30.09R
VICKSBURG      SUNNY     66  40  38 E8        30.09R
$$

MSZ059>079-211600-
SOUTH MISSISSIPPI

CITY           SKY/WX    TMP DP  RH WIND       PRES   REMARKS
BROOKHAVEN     FAIR      63  46  55 NE8       30.11R
HATTIESBURG    SUNNY     67  48  50 NE8       30.09R
MCCOMB         SUNNY     65  45  48 NE6       30.08R
NATCHEZ        MOSUNNY   61  45  55 NE6       30.09S
PINE BELT      SUNNY     64 N/A N/A NE10      30.10R
$$

MSZ080>082-211600-
COASTAL MISSISSIPPI

CITY           SKY/WX    TMP DP  RH WIND       PRES   REMARKS
BAY ST LOUIS   SUNNY     66  45  45 MISG      30.07S
BILOXI         CLOUDY    69  49  49 NE10      30.06S
PASCAGOULA     MOSUNNY   69  47  45 NE7       30.07R
GULFPORT       MOSUNNY   69  48  47 NE6       30.06S
$$


USA.gov is the U.S. government's official web portal to all federal, state and local government web resources and services.